Weather reports worldwide

Advertisment
Strathallan, United Kingdom (3144): temperature & dewpoint: 10.12.2018 00:00:00 - 16.12.2018 00:00:00 (GMT)Strathallan, United Kingdom (3144): temperature -20cm & temperature -100cm: 10.12.2018 00:00:00 - 16.12.2018 00:00:00 (GMT)Strathallan, United Kingdom (3144): wind speed & gusts: 10.12.2018 00:00:00 - 16.12.2018 00:00:00 (GMT)Strathallan, United Kingdom (3144): wind direction: 10.12.2018 00:00:00 - 16.12.2018 00:00:00 (GMT)Strathallan, United Kingdom (3144): reduced air pressure: 10.12.2018 00:00:00 - 16.12.2018 00:00:00 (GMT)Strathallan, United Kingdom (3144): visibility: 10.12.2018 00:00:00 - 16.12.2018 00:00:00 (GMT)Strathallan, United Kingdom (3144): precipitation: 10.12.2018 00:00:00 - 16.12.2018 00:00:00 (GMT)
Date & Time tt [°C] td [°C] tt -20cm [°C] tt -100cm [°C] ff [km/h] ff [kn] fx [km/h] fx [kn] dd ppp [hPa] vv [km] rr [mm]
16.12.2018 00:00:00 1,3 0,7 - - 15 8 - - N 988,6 3,2 1,4
15.12.2018 23:00:00 1,7 0,6 - - 15 8 - - ESE 989,2 5 1,4
15.12.2018 22:00:00 1,2 0,5 - - 15 8 - - ENE 990,2 45 1,0
15.12.2018 21:00:00 0,4 0,0 - - 16 9 - - ENE 991,6 2,2 1,6
15.12.2018 20:00:00 0,9 0,2 - - 21 11 - - ENE 992,7 3,9 1,6
15.12.2018 19:00:00 1,4 0,4 - - 18 10 - - E 993,4 7 1,8
15.12.2018 18:00:00 1,3 0,2 - - 13 7 - - ENE 995,5 3,4 1,4
15.12.2018 17:00:00 1,0 0,0 - - 18 10 - - E 996,5 3,8 3,4
15.12.2018 16:00:00 0,8 -0,3 - - 21 11 - - E 998,2 2,5 4,2
15.12.2018 15:00:00 0,9 -0,8 - - 21 11 - - ENE 1000,2 4,2 2,6
15.12.2018 14:00:00 1,5 -1,5 - - 22 12 - - E 1001,7 4,8 0,4
15.12.2018 13:00:00 1,9 -2,3 - - 24 13 - - E 1003,8 14 0,0
15.12.2018 12:00:00 2,2 -2,8 - - 22 12 - - E 1005,7 20 0,0
15.12.2018 11:00:00 2,3 -3,0 - - 21 11 - - ENE 1007,7 21 0,0
15.12.2018 10:00:00 2,2 -2,9 - - 16 9 - - E 1010,0 22 0,0
15.12.2018 09:00:00 2,2 -2,8 3,2 7,4 15 8 - - E 1011,3 25 0,0
15.12.2018 08:00:00 2,1 -2,7 - - 11 6 - - E 1012,1 28 0,0
15.12.2018 07:00:00 1,8 -3,3 - - 16 9 - - E 1011,3 40 0,0
15.12.2018 06:00:00 1,5 -2,9 - - 8 4 - - ENE 1013,0 28 0,0
15.12.2018 05:00:00 2,0 -3,7 - - 5 3 - - ENE 1014,1 45 0,0
15.12.2018 04:00:00 2,6 -4,2 - - 11 6 - - E 1014,5 50 0,0
15.12.2018 03:00:00 2,7 -4,0 - - 18 10 - - ESE 1015,3 50 0,0
15.12.2018 02:00:00 1,6 -2,8 - - 8 4 - - NE 1016,6 35 0,0
15.12.2018 01:00:00 1,4 -3,0 - - 9 5 - - NE 1016,5 35 0,0
15.12.2018 00:00:00 1,3 -2,6 - - 9 5 - - ENE 1016,8 30 0,0
14.12.2018 23:00:00 1,3 -2,7 - - 11 6 - - NE 1017,5 35 0,0
14.12.2018 22:00:00 2,0 -3,3 - - 8 4 - - ESE 1018,7 45 0,0
14.12.2018 21:00:00 1,9 -2,7 - - 15 8 - - ESE 1018,8 50 0,0
14.12.2018 20:00:00 -0,1 -3,7 - - 4 2 - - NNW 1019,4 30 0,0
14.12.2018 19:00:00 0,3 -3,5 - - 5 3 - - ENE 1019,3 40 0,0
14.12.2018 18:00:00 1,7 -3,4 - - 13 7 - - ESE 1019,6 45 0,0
14.12.2018 17:00:00 -3,1 -4,1 - - 2 1 - - W 1020,5 20 0,0
14.12.2018 16:00:00 -2,2 -3,9 - - 4 2 - - SW 1021,0 30 0,0
14.12.2018 15:00:00 1,4 -2,3 - - 4 2 - - ENE 1020,9 50 0,0
14.12.2018 14:00:00 3,2 -2,0 - - 2 1 - - ENE 1021,0 50 0,0
14.12.2018 13:00:00 3,0 -2,1 - - 5 3 - - ENE 1021,4 45 0,0
14.12.2018 12:00:00 1,7 -1,2 - - 4 2 - - WNW 1022,0 40 0,0
14.12.2018 11:00:00 -0,8 -1,8 - - 4 2 - - W 1022,1 29 0,0
14.12.2018 10:00:00 -3,1 -3,6 - - 4 2 - - W 1022,4 29 0,0
14.12.2018 09:00:00 -4,2 -4,8 3,9 7,5 4 2 - - W 1022,3 21 0,0
14.12.2018 08:00:00 -3,6 -4,1 - - 5 3 - - NW 1021,8 20 0,0
14.12.2018 07:00:00 -3,9 -4,5 - - 5 3 - - SW 1021,8 27 0,0
14.12.2018 06:00:00 -3,4 -4,2 - - 2 1 - - NW 1022,3 21 0,0
14.12.2018 05:00:00 -2,6 -4,0 - - 5 3 - - W 1022,7 28 0,0
14.12.2018 04:00:00 -0,8 -2,5 - - 4 2 - - NNE 1022,5 40 0,0
14.12.2018 03:00:00 -1,0 -2,8 - - 4 2 - - SE 1022,3 45 0,0
14.12.2018 02:00:00 1,0 -2,4 - - 5 3 - - E 1022,4 50 0,0
14.12.2018 01:00:00 1,7 -1,6 - - 5 3 - - SE 1022,1 50 0,0
14.12.2018 00:00:00 2,2 -1,9 - - 4 2 - - NE 1022,2 50 0,0
13.12.2018 23:00:00 1,6 -1,7 - - 8 4 - - NE 1022,3 50 0,0
13.12.2018 22:00:00 1,9 -1,2 - - 8 4 - - ESE 1022,1 50 0,0
13.12.2018 21:00:00 4,3 -1,6 - - 13 7 - - ESE 1021,9 50 0,0
13.12.2018 20:00:00 3,0 -1,4 - - 8 4 - - E 1021,6 50 0,0
13.12.2018 19:00:00 4,1 -1,1 - - 11 6 - - ESE 1021,0 50 0,0
13.12.2018 18:00:00 4,2 -1,4 - - 15 8 - - NE 1020,2 50 0,0
13.12.2018 17:00:00 4,1 -1,4 - - 18 10 50 27 NE 1019,8 50 0,0
13.12.2018 16:00:00 3,8 -1,5 - - 15 8 - - NNE 1019,4 50 0,0
13.12.2018 15:00:00 4,2 -1,5 - - 11 6 - - ESE 1018,4 45 0,0
13.12.2018 14:00:00 4,9 -1,7 - - 9 5 - - ESE 1018,6 50 0,0
13.12.2018 13:00:00 5,4 -1,3 - - 9 5 - - SE 1018,6 40 0,0
13.12.2018 12:00:00 4,8 -1,1 - - 11 6 - - SE 1018,8 45 0,0
13.12.2018 11:00:00 4,3 -1,3 - - 11 6 - - E 1019,0 35 0,0
13.12.2018 10:00:00 4,0 -1,6 - - 8 4 - - E 1018,8 50 0,0
13.12.2018 09:00:00 4,3 -1,9 4,5 7,5 11 6 - - E 1018,7 50 0,0
13.12.2018 08:00:00 3,9 -0,7 - - 11 6 - - E 1018,3 50 0,0
13.12.2018 07:00:00 3,5 -0,9 - - 15 8 - - E 1017,8 50 0,0
13.12.2018 06:00:00 2,8 -1,4 - - 11 6 - - E 1017,6 50 0,0
13.12.2018 05:00:00 2,8 -1,6 - - 11 6 - - ENE 1017,8 45 0,0
13.12.2018 04:00:00 2,9 -1,9 - - 13 7 - - ENE 1017,9 50 0,0
13.12.2018 03:00:00 3,4 -1,8 - - 15 8 - - E 1018,0 45 0,0
13.12.2018 02:00:00 2,9 -2,2 - - 13 7 - - ENE 1018,3 50 0,0
13.12.2018 01:00:00 2,5 -1,9 - - 11 6 - - E 1018,4 50 0,0
13.12.2018 00:00:00 2,0 -1,7 - - 9 5 - - ENE 1018,4 45 0,0
12.12.2018 23:00:00 3,1 -0,9 - - 16 9 - - E 1018,1 35 0,0
12.12.2018 22:00:00 3,1 -0,1 - - 11 6 - - ENE 1018,1 35 0,0
12.12.2018 21:00:00 4,5 0,9 - - 13 7 - - ENE 1018,0 27 0,0
12.12.2018 20:00:00 5,8 2,1 - - 15 8 - - E 1018,2 20 0,0
12.12.2018 19:00:00 6,1 2,8 - - 16 9 - - E 1017,6 20 0,0
12.12.2018 18:00:00 5,9 3,1 - - 16 9 - - E 1017,5 17 0,0
12.12.2018 17:00:00 5,8 3,3 - - 13 7 - - E 1018,0 18 0,0
12.12.2018 16:00:00 6,3 3,7 - - 9 5 - - E 1017,8 19 0,0
12.12.2018 15:00:00 6,3 4,0 - - 8 4 - - ENE 1018,0 16 0,0
12.12.2018 14:00:00 6,4 4,0 - - 9 5 - - ENE 1018,6 17 0,0
12.12.2018 13:00:00 6,4 3,8 - - 15 8 - - NE 1018,9 16 0,0
12.12.2018 12:00:00 6,3 3,9 - - 13 7 - - NE 1019,2 13 0,0
12.12.2018 11:00:00 6,2 4,2 - - 21 11 - - E 1019,4 12 0,0
12.12.2018 10:00:00 5,9 4,1 - - 9 5 - - NE 1019,7 12 0,0
12.12.2018 09:00:00 6,1 4,2 4,2 7,7 11 6 - - E 1019,5 14 0,0
12.12.2018 08:00:00 6,7 4,7 - - 11 6 - - E 1019,1 13 0,0
12.12.2018 07:00:00 6,5 4,7 - - 11 6 - - ENE 1019,2 12 0,0
12.12.2018 06:00:00 6,2 4,7 - - 11 6 - - E 1018,9 12 0,0
12.12.2018 05:00:00 5,9 5,6 - - 5 3 - - ENE 1018,7 10 0,0
12.12.2018 04:00:00 4,5 4,5 - - 5 3 - - ESE 1018,8 8 0,0
12.12.2018 03:00:00 3,6 3,5 - - 5 3 - - N 1019,3 2,5 0,0
12.12.2018 02:00:00 3,4 3,3 - - 2 1 - - WSW 1019,6 2,0 0,0
12.12.2018 01:00:00 3,4 3,3 - - 0 0 - - N 1019,5 3,2 0,0
12.12.2018 00:00:00 3,5 3,4 - - 5 3 - - WSW 1019,7 5 0,0
11.12.2018 23:00:00 3,1 3,0 - - 5 3 - - W 1019,7 3,0 0,0
11.12.2018 22:00:00 3,0 2,9 - - 0 0 - - N 1019,9 2,2 0,0
11.12.2018 21:00:00 2,9 2,7 - - 2 1 - - WSW 1020,1 1,9 0,0
11.12.2018 20:00:00 2,7 2,5 - - 2 1 - - NNW 1020,2 1,9 0,0
11.12.2018 19:00:00 2,9 2,7 - - 2 1 - - SW 1020,2 3,0 0,0
11.12.2018 18:00:00 3,0 2,8 - - 0 0 - - N 1020,4 3,9 0,0
11.12.2018 17:00:00 2,9 2,7 - - 0 0 - - N 1020,5 3,4 0,0
11.12.2018 16:00:00 2,8 2,6 - - 0 0 - - N 1020,6 3,4 0,0
11.12.2018 15:00:00 2,8 2,6 - - 5 3 - - WNW 1021,0 4,4 0,0
11.12.2018 14:00:00 3,0 2,8 - - 0 0 - - N 1021,5 10 0,0
11.12.2018 13:00:00 2,8 2,7 - - 0 0 - - N 1022,0 6 0,0
11.12.2018 12:00:00 2,4 2,3 - - 0 0 - - N 1022,7 6 0,0
11.12.2018 11:00:00 2,1 2,0 - - 0 0 - - N 1023,1 4,9 0,0
11.12.2018 10:00:00 1,7 1,6 - - 0 0 - - N 1023,1 3,0 0,2
11.12.2018 09:00:00 1,5 1,4 3,7 7,7 2 1 - - WSW 1023,3 1,6 0,0
11.12.2018 08:00:00 1,3 1,1 - - 0 0 - - N 1023,4 1,6 0,0
11.12.2018 07:00:00 1,2 1,1 - - 0 0 - - N 1023,3 1,7 0,0
11.12.2018 06:00:00 1,1 0,9 - - 2 1 - - W 1023,4 2,5 0,0
11.12.2018 05:00:00 0,9 0,7 - - 2 1 - - W 1023,7 10 0,0
11.12.2018 04:00:00 0,7 0,6 - - 2 1 - - WSW 1024,2 10 0,0
11.12.2018 03:00:00 0,4 0,3 - - 2 1 - - N 1024,5 7 0,0
11.12.2018 02:00:00 0,3 0,0 - - 0 0 - - N 1024,7 7 0,0
11.12.2018 01:00:00 0,6 0,4 - - 0 0 - - N 1025,0 10 0,0
11.12.2018 00:00:00 0,8 0,5 - - 2 1 - - W 1025,6 16 0,0
10.12.2018 23:00:00 0,7 0,5 - - 2 1 - - WSW 1026,0 14 0,0
10.12.2018 22:00:00 0,6 0,4 - - 0 0 - - N 1026,1 18 0,0
10.12.2018 21:00:00 0,6 0,3 - - 4 2 - - WSW 1026,3 15 0,0
10.12.2018 20:00:00 0,4 0,2 - - 2 1 - - NW 1026,4 13 0,0
10.12.2018 19:00:00 0,0 -0,4 - - 4 2 - - WSW 1026,4 23 0,0
10.12.2018 18:00:00 0,1 -0,2 - - 4 2 - - W 1026,6 35 0,0
10.12.2018 17:00:00 -0,1 -0,6 - - 2 1 - - W 1026,2 40 0,0
10.12.2018 16:00:00 0,4 -0,3 - - 2 1 - - SW 1026,1 50 0,0
10.12.2018 15:00:00 1,7 0,3 - - 0 0 - - N 1026,5 50 0,0
10.12.2018 14:00:00 2,0 0,6 - - 0 0 - - N 1026,6 50 0,0
10.12.2018 13:00:00 2,5 1,1 - - 0 0 - - N 1026,5 50 0,2
10.12.2018 12:00:00 1,1 0,1 - - 2 1 - - NNW 1026,5 40 0,0
10.12.2018 11:00:00 0,4 0,2 - - 4 2 - - W 1026,4 40 0,0
10.12.2018 10:00:00 -1,7 -2,0 - - 5 3 - - W 1026,0 50 0,0
10.12.2018 09:00:00 -2,5 -2,9 4,4 7,7 2 1 - - W 1025,4 50 0,0
10.12.2018 08:00:00 -2,9 -3,3 - - 4 2 - - W 1024,7 50 0,0
10.12.2018 07:00:00 -2,5 -2,9 - - 2 1 - - ENE 1024,1 50 0,0
10.12.2018 06:00:00 -2,6 -3,0 - - 4 2 - - W 1023,6 50 0,0
10.12.2018 05:00:00 -2,2 -2,6 - - 4 2 - - SW 1022,8 50 0,0
10.12.2018 04:00:00 -3,1 -3,5 - - 8 4 - - WSW 1022,3 50 0,0
10.12.2018 03:00:00 -2,2 -2,5 - - 5 3 - - E 1021,9 45 0,0
10.12.2018 02:00:00 -2,9 -3,3 - - 2 1 - - W 1021,1 45 0,0
10.12.2018 01:00:00 -2,3 -2,7 - - 0 0 - - N 1020,5 40 0,0
10.12.2018 00:00:00 -1,3 -1,6 - - 4 2 - - W 1019,9 50 0,0

tt = temperature
td = dewpoint
tt -20cm = temperature -20cm
tt -100cm = temperature -100cm
ff = wind speed
fx = gusts
dd = wind direction
ppp = reduced air pressure
vv = visibility
rr = precipitation

Next stations